Location: Ariel
(45.9570°N, 122.5700°W)
Time: 17:31:32
(UTC-07:00)

Tiros 1 - Pass Details

Date: 21 July 2019
Orbit: 630 x 664 km, 48.4° (Epoch: 21 August)

Event Time Altitude Azimuth Distance (km) Brightness Sun altitude
Rises 17:07:02 0° 285° (WNW) 2,998 11.4 36.8°
Reaches altitude 10° 17:09:24 10° 287° (WNW) 2,084 10.8 36.4°
Maximum altitude 17:14:13 78° 13° (NNE) 680 7.8 35.6°
Drops below altitude 10° 17:19:01 10° 101° (E) 2,069 9.4 34.8°
Sets 17:21:21 0° 103° (ESE) 2,975 10.1 34.4°
